www.pogodaiklimat.ru

Погода и климат >> Архив погоды >> Россия >> Мордовия >> Темников


ПОГОДА в Темникове

  • Прогноз погоды в Темникове
  • Монитор погоды в Темникове
  • Климат города

АРХИВ ПОГОДЫ в Темникове

Время (UTC), дата Ветер
(напр.,м/с)
 
Видим.   Явления Облачность Т
(С)
Тd
(С)
f
(%)
Тe
(С)
Тes
(С)
Комфортность P
(гПа)
Po
(гПа)
Тmin
(С)
Tmax
(С)
R
(мм)
R24
(мм)
S
(см)
00 16.04 З 2-3
{4}
10 км ясно +3.0 -3.5 62 0 0 1020.5 1003.2
03 16.04 штиль 0
{3}
20 км ясно +1.0 -2.9 75 0 +1 1020.4 1002.9 +0.3
06 16.04 В 1-1
{3}
20 км ясно +10.0 -1.7 44 +10 +18 1020.3 1003.3
09 16.04 З 3-5
{5}
20 км ясно +16.5 -6.0 21 +16 +26 1019.4 1002.8
12 16.04 СЗ 4-7
{8}
20 км ясно +17.8 -4.7 21 +18 +23 1018.0 1001.6
15 16.04 СЗ 3-5
{7}
20 км ясно +17.4 -6.0 20 +17 +18 1016.8 1000.4 +18.2
18 16.04 З 2-2
{5}
10 км 3/1 600 м
[Sc Ci fib]
+9.6 -5.4 34 +9 +9 1017.7 1000.8
21 16.04 штиль 0
{2}
10 км 6/0
[Ac trans Cs]
+5.9 -2.7 54 +6 +6 1017.4 1000.3
00 17.04 штиль 0
{1}
10 км 10/10 600 м
[Sc]
+4.8 -2.9 57 +4 +4 1017.2 1000.1
03 17.04 В 1-1
{1}
20 км 8/8 600 м
[Sc]
+4.6 -0.2 71 +4 +4 1017.1 1000.0 +3.7
06 17.04 СВ 1-1
{3}
20 км 8/4 600 м
[Sc Ac As]
+9.7 +1.5 57 +10 +12 1017.4 1000.5
09 17.04 ЮВ 1-2
{3}
20 км 6/0
[As trans]
+18.2 +0.4 30 +19 +28 1016.6 1000.3
12 17.04 ЮВ 2-3
{4}
20 км 3/3 600 м
[Cu hum As trans]
+19.7 -0.5 26 +20 +26 1015.9 999.6
15 17.04 штиль 0
{3}
20 км 10/8 600 м
[Sc Ac As]
+17.9 +1.1 32 +18 +18 1015.4 999.0 +20.2
18 17.04 ЮЗ 2-2
{2}
10 км 4/3 600 м
[Sc Ci fib]
+12.5 +1.9 48 +12 +12 1016.0 999.4
21 17.04 ЮЗ 1-2
{3}
10 км 8/8 600 м
[Sc]
+8.9 +3.8 70 +8 +8 1015.9 999.0
00 18.04 штиль 0
{2}
10 км 3/3 600 м
[Sc As trans]
+6.8 +4.2 83 +6 +6 1015.3 998.3
03 18.04 В 1-1
{2}
20 км 10/10 600 м
[Sc]
+7.4 +5.6 88 +6 +6 1014.1 997.2 +6.3
06 18.04 ЮВ 1-1
{2}
4000 м слабый дождь 10/10 300 м
[Frnb Ns]
+9.0 +7.7 92 +8 +8 1013.5 996.7
09 18.04 В 3-7
{7}
20 км в посл. час дождь 10/8 300 м
[Sc diur, vesp Ac trans]
+11.8 +9.8 88 +10 +11 1011.8 995.2
12 18.04 В 3-4
{7}
20 км {дождь} 10/10 300 м
[Sc]
+11.8 +9.7 87 +10 +10 1010.1 993.5
15 18.04 В 3-4
{6}
4000 м дымка 10/10 300 м
[St]
+11.1 +9.5 90 +9 +9 1008.5 991.9 +13.0 2
18 18.04 В 1-2
{5}
4000 м слабый дождь 10/9 300 м
[Frnb As op]
+8.6 +7.3 92 +8 +8 1006.5 989.8
21 18.04 ЮВ 2-3
{6}
4000 м слабый дождь 10/9 300 м
[Frnb As op]
+8.8 +7.7 93 +7 +7 1002.6 986.0
00 19.04 ЮВ 1-1
{3}
4000 м слабый дождь 10/9 300 м
[Frnb As op]
+8.0 +7.1 94 +7 +7 1000.4 983.8
03 19.04 Ю 2-2
{4}
1000 м 10/9 300 м
[Frnb As op]
+7.6 +6.7 94 +5 +5 998.6 981.9 +7.5 13
06 19.04 Ю 3-5
{6}
4000 м дымка {дождь, морось} 10/10 300 м
[Frnb]
+6.7 +5.3 91 +4 +4 999.1 982.4 +6.4
09 19.04 Ю 3-5
{6}
20 км 10/10 300 м
[Sc]
+8.7 +5.6 81 +6 +6 999.4 982.8
12 19.04 Ю 2-4
{6}
20 км 10/9 300 м
[Sc As trans]
+9.5 +4.1 69 +8 +8 1000.5 983.9
15 19.04 С 2-3
{5}
20 км {дождь} 10/8 300 м
[Sc As trans]
+7.7 +6.2 90 +6 +6 1001.3 984.6 +10.6 1
18 19.04 С 3-5
{6}
4000 м слабая морось {дождь} 10/10 300 м
[Frnb Ns]
+6.8 +5.5 91 +4 +4 1002.4 985.7
21 19.04 С 2-4
{6}
4000 м {морось} 10/10 300 м
[Sc]
+6.4 +5.3 93 +4 +4 1003.0 986.3
00 20.04 С 2-4
{5}
4000 м дымка {морось} 10/10 300 м
[Sc]
+6.7 +5.6 93 +4 +4 1003.4 986.7
03 20.04 С 4-7
{8}
10 км 10/10 300 м
[Sc]
+6.9 +5.1 88 +3 +3 1004.7 987.9 +6.4 2
06 20.04 С 3-7
{8}
20 км 6/4 600 м
[Sc Ac As Ci fib]
+7.0 +2.1 71 +4 +7 1007.2 990.4
09 20.04 С 5-8
{11}
20 км 4/3 600 м
[Cu med, cong Ci fib]
+11.8 -0.2 44 +10 +14 1008.6 992.0
12 20.04 С 5-9
{11}
20 км 8/8 600 м
[Cu hum]
+12.7 -1.2 38 +11 +12 1009.5 992.9
15 20.04 С 3-7
{12}
20 км 6/6 600 м
[Cu hum]
+11.5 -3.6 35 +10 +11 1010.1 993.5 +12.7
18 20.04 С 2-3
{8}
10 км 3/3 600 м
[Sc Ac trans]
+6.0 -7.0 39 +4 +4 1012.0 995.0
21 20.04 В 1-2
{3}
10 км 4/4 600 м
[Sc]
+2.5 -5.7 55 +1 +1 1011.9 994.6
00 21.04 З 1-1
{2}
10 км 3/3 600 м
[Sc Ac trans]
+0.1 -2.6 82 -2 -2 1011.6 994.2
03 21.04 штиль 0
{2}
20 км 4/3 600 м
[Sc Ac trans Ci fib]
-1.2 -2.9 88 -2 -2 1009.8 992.5 -1.9
06 21.04 ЮЗ 3-5
{6}
20 км 10/3 600 м
[Sc As trans]
+6.5 -5.3 43 +4 +6 1007.2 990.3
09 21.04 Ю 4-7
{8}
4000 м слабый дождь 10/10 300 м
[Frnb Ns]
+8.3 +0.6 58 +6 +6 1003.0 986.3
12 21.04 Ю 4-8
{9}
20 км в посл. час дождь 10/10 300 м
[Sc]
+8.6 +4.5 75 +6 +6 997.6 981.1
15 21.04 Ю 4-8
{11}
20 км 4/3 600 м
[Sc diur, vesp Ci fib]
+14.6 +4.5 51 +14 +14 991.9 975.8 +14.6 0.9
18 21.04 Ю 5-9
{11}
10 км 8/6 300 м
[Cb cap Ac trans]
+14.2 +4.5 52 +13 +13 986.7 970.7
21 21.04 ЮЗ 4-7
{14}
10 км в посл. час дождь 10/9 300 м
[Frnb As op]
+9.3 +7.6 89 +6 +6 985.8 969.4
00 22.04 З 4-9
{11}
10 км {дождь} 10/8 300 м
[Cb calv Ac As]
+8.1 +5.6 84 +5 +5 984.5 968.1
03 22.04 З 7-13
{14}
10 км 10/9 300 м
[Frnb As op]
+3.9 +0.8 80 -2 -2 985.8 969.1 +3.8 3
06 22.04 З 6-11
{17}
20 км {дождь} 10/8 300 м
[Cb calv Ac As]
+2.2 -1.8 75 -4 -3 988.4 971.6 +1.7
09 22.04 СЗ 6-11
{16}
20 км 10/6 300 м
[Cb calv Ac As]
+1.8 -3.3 69 -4 -3 992.2 975.3
12 22.04 СЗ 7-12
{15}
20 км 10/8 300 м
[Cb calv Ac trans]
+1.7 -3.8 67 -5 -4 996.3 979.3
15 22.04 СЗ 5-11
{12}
20 км 9/6 300 м
[Cb calv Ac As]
+1.2 -3.0 74 -4 -4 998.8 981.8 +3.9 0.0
18 22.04 СЗ 6-10
{11}
10 км 10/10 300 м
[Cb calv]
+0.8 -5.3 64 -5 -5 1001.2 984.1
21 22.04 СЗ 5-8
{11}
10 км 10/10 300 м
[St]
+0.1 -4.3 72 -6 -6 1002.9 985.7

 

Местоположение метеостанции Темников (Мордовия, Россия): широта 54.63 долгота 43.23 высота над уровнем моря 139 м.

В архиве по умолчанию представлена погода в Темникове за последнюю неделю. Архивные данные за месяц целиком и за предыдущие месяцы, начиная с января 2011 года, Вы можете получить, выбрав интересующий диапазон дат из раскрывающегося списка и нажав кнопку "Ввод!".


*Определитесь, кто Вы:
робот инопланетянин человек

Внимание! Время в таблицах - всемирное. Для получения местного времени необходимо прибавить поправку, которая в Темникове равна 3 ч.

Смотрите также архив погоды в соседних городах и на ближайших метеорологических станциях:

Погода в Краснослободске (Мордовия, Россия) (41 км)
Погода в Торбеево (Мордовия, Россия) (61 км)
Погода в Сасово (Рязанская область, Россия) (87 км)
Погода в Арзамасе (Нижегородская область, Россия) (89 км)
Погода в Лукоянове (Нижегородская область, Россия) (93 км)
Погода в Елатьме (Рязанская область, Россия) (100 км)
Погода в Выксе (Нижегородская область, Россия) (105 км)
Погода в Инсаре (Мордовия, Россия) (113 км)
Погода в Муроме (Владимирская область, Россия) (132 км)
Погода в Земетчино (Пензенская область, Россия) (134 км)

Пояснения к столбцам:

Ветер - указаны скорость ветра в м/с - средняя за 10 мин, порывы в срок и между сроками (в фигурных скобках) и направление, откуда дует ветер: С - северный, СВ - северо-восточный, В - восточный, ЮВ - юго-восточный, Ю - южный, ЮЗ - юго-западный, З - западный, СЗ - северо-западный.
Видимость - горизонтальная дальность видимости в метрах или километрах. При видимости от 1 до 10 км при отсутствии осадков обычно наблюдается дымка, при ухудшении видимости до 1 км и менее - туман. В сухую погоду видимость может ухудшаться дымом, пылью или мглою.
Явления - указаны атмосферные явления, наблюдавшиеся в срок или в последний час перед сроком; фигурными скобками обозначены явления, наблюдавшиеся между сроками (за 1-3 часа до срока); квадратными скобками обозначены град или гололедные отложения с указанием их диаметра в мм.
Облачность - указаны через наклонную черту общая и нижняя облачность в баллах и высота нижней границы облаков в метрах; квадратными скобками обозначены формы облаков: Ci - перистые, Cs - перисто-слоистые, Cc - перисто-кучевые, Ac - высококучевые, As - высокослоистые, Sc - слоисто-кучевые, Ns - слоисто-дождевые, Cu - кучевые, Cb - кучево-дождевые. Подробнее классификацию облаков см. в Атласе облаков (PDF).
T - Температура воздуха - температура, измеренная на высоте 2 м над землей.
Td - Температура точки росы - температура, при понижении до которой содержащийся в воздухе водяной пар достигнет насыщения.
f - Относительная влажность воздуха - влажноcть воздуха, измеренная на высоте 2 м над землей.
Te - Эффективная температура - температура, которую ощущает одетый по сезону человек в тени. Характеристика душности погоды. При расчете учитывается влияние влажности воздуха и скорости ветра на теплоощущения человека.
Tes - Эффективная температура на солнце - температура, которую ощущает человек, с поправкой на солнечный нагрев. Характеристика знойности погоды. Зависит от высоты солнца над горизонтом, облачности и скорости ветра. Ночью, в пасмурную погоду, а также при ветре 12 м/с и более поправка равна нулю.
P - Атмосферное давление - приведенное к уровню моря атмосферное давление.
Po - Атмосферное давление - измеренное на уровне метеостанции атмосферное давление.
Tmin - Минимальная температура - минимум температуры воздуха на высоте 2 м над землей.
Tmax - Максимальная температура - максимум температуры воздуха на высоте 2 м над землей.
R - Количество осадков - Количество выпавших осадков за период времени, мм. При наведении курсора мыши на число - период времени, за который выпало указанное количество осадков.
R24 - Количество осадков - Количество выпавших осадков за 24 часа, мм.
S - Снежный покров - Высота снежного покрова, см. При наведении курсора мыши на число - состояние снежного покрова и степень покрытия местности в баллах.